Wind_Speed
84 79 75 71 67 63 58 54 50 48 46 45 44 42 40 39 38 38 37 38 38 38 39 40 41 42 43 45 47 50 53 56 59 62 65 69 73 77 81 85 89 93 96 100 104 108 113 117 123 128 134 139 144 148 151 153 156 158 161 163 165 167 168 169 169 170 171 172 173 173 173 174 175 176 176 176 176 175 174 173 172 170 168 166 163 160
83 79 75 71 67 63 59 54 51 48 46 45 44 42 40 38 37 37 36 37 37 37 38 39 40 41 42 44 46 49 52 55 58 61 65 68 72 76 80 84 88 92 95 99 103 107 112 116 121 126 131 137 142 146 149 152 154 157 160 162 165 166 168 168 169 170 171 172 172 172 172 173 174 175 175 176 175 175 174 173 172 170 169 166 164 161
83 78 74 71 67 64 60 56 51 48 46 44 43 42 40 38 36 36 35 36 36 36 37 38 39 40 41 43 45 48 51 54 57 61 64 68 71 75 79 83 87 90 94 98 102 106 110 115 119 124 129 135 140 144 147 150 153 156 159 162 164 166 167 168 169 170 171 171 171 171 171 171 172 174 174 175 174 174 173 172 171 170 169 167 165 162
82 78 74 70 67 64 60 56 52 49 46 44 43 41 40 38 36 35 35 35 35 35 36 37 38 39 40 42 44 47 50 53 56 60 63 67 71 74 78 82 86 89 93 97 101 105 109 113 118 122 127 133 137 142 145 149 152 155 159 161 163 165 166 167 168 169 170 170 170 170 170 171 171 172 173 173 173 173 172 172 171 170 169 167 165 163
81 78 74 71 67 64 61 57 53 50 46 44 43 41 40 38 36 35 34 34 34 35 35 36 37 38 39 41 43 46 49 52 56 59 63 66 70 73 77 81 85 88 92 96 100 104 108 112 116 121 125 131 135 139 143 147 151 154 157 160 162 163 165 166 167 168 169 169 169 169 169 170 171 171 172 172 172 172 172 171 170 170 168 167 166 164
80 77 74 71 68 65 62 58 55 51 47 45 43 41 40 38 36 34 33 33 33 34 34 35 36 37 38 40 42 45 48 51 55 58 62 65 69 72 76 80 84 87 91 94 98 102 106 111 115 119 124 129 133 137 141 145 149 153 156 159 161 162 164 165 166 168 168 169 169 169 169 169 170 170 171 171 172 172 171 171 170 169 168 167 166 164
79 76 73 70 67 65 62 59 56 52 49 45 43 41 40 38 36 34 33 32 32 33 34 34 35 36 37 39 41 44 47 50 54 57 61 65 68 72 75 79 83 86 90 93 97 101 105 109 113 118 122 126 131 135 139 143 147 151 154 157 160 162 163 164 166 167 168 168 168 168 169 169 169 169 170 171 171 171 171 171 170 169 168 167 166 165
78 75 72 70 67 64 62 60 57 54 50 46 43 41 39 38 36 34 32 32 32 32 33 33 34 35 37 38 41 43 46 50 53 57 60 64 68 71 75 78 82 85 89 92 96 100 104 108 112 116 120 124 129 133 137 141 145 149 153 156 159 161 163 164 165 166 167 167 167 168 168 168 169 169 169 170 171 171 171 171 170 169 168 167 166 165
76 74 71 69 67 64 62 60 57 55 51 47 44 41 38 37 35 34 32 31 31 31 32 33 33 35 36 38 40 43 46 49 52 56 60 63 67 70 74 77 81 84 88 91 95 99 102 106 110 114 118 122 126 131 135 139 143 148 152 155 158 161 163 164 165 166 166 166 166 167 167 168 168 169 169 170 171 171 171 171 170 169 168 167 166 165
74 72 69 67 65 63 61 60 58 55 52 49 45 41 38 36 34 33 32 31 31 31 31 32 33 34 35 37 39 42 45 48 52 55 59 62 66 70 73 77 80 83 87 91 94 98 101 105 109 112 116 120 124 129 133 138 142 146 151 154 158 160 162 164 165 165 166 166 166 167 168 168 168 168 169 170 170 171 171 170 170 169 168 167 166 165
73 70 67 65 63 60 59 57 56 54 52 49 46 43 40 37 34 32 31 30 30 30 31 31 32 33 34 36 39 41 44 47 51 54 58 62 65 69 72 76 79 82 86 89 93 96 100 103 107 111 114 118 122 127 132 137 141 146 150 153 157 159 161 163 164 165 165 166 166 167 168 168 168 168 169 170 170 171 171 170 170 169 168 168 167 165
71 68 66 63 61 58 56 54 53 52 50 48 46 43 40 37 34 32 31 30 29 29 30 30 31 32 34 36 38 41 44 47 50 54 57 61 64 68 71 75 78 81 85 88 92 95 98 102 105 109 112 116 120 125 130 135 140 145 149 152 155 158 160 162 163 164 165 165 166 167 168 168 168 168 169 170 170 170 170 170 170 169 169 168 167 166
68 65 63 60 58 55 53 51 50 48 47 46 44 42 40 37 34 32 30 29 29 29 29 30 31 32 33 35 37 40 43 46 49 53 56 60 63 67 70 74 77 80 83 87 90 94 97 100 104 107 111 114 119 123 128 133 138 143 148 151 154 157 159 161 162 163 164 165 166 167 168 168 168 169 169 170 170 170 170 170 170 169 169 168 167 165
66 63 60 58 55 53 50 48 47 46 45 43 42 40 38 36 34 31 30 29 28 28 29 29 30 31 33 35 37 40 42 45 49 52 56 59 63 66 69 72 76 79 82 85 89 92 95 99 102 106 109 113 117 121 126 131 136 142 146 150 153 155 158 160 161 162 164 164 165 166 167 168 168 169 169 170 170 170 170 170 169 169 168 167 166 165
65 62 59 56 54 51 49 47 45 44 43 41 40 38 36 35 33 31 29 28 28 28 28 29 30 31 33 35 37 39 42 45 48 51 55 58 62 65 68 71 74 77 81 84 87 91 94 97 101 104 108 111 115 119 124 129 135 140 145 149 152 154 157 159 161 162 163 164 164 165 166 167 168 169 169 170 170 170 170 170 169 169 168 167 166 165
65 62 59 56 53 50 47 46 44 43 41 40 38 36 35 33 32 30 29 28 27 27 27 28 29 31 32 34 36 39 41 44 48 51 54 57 61 64 67 70 73 76 79 83 86 89 92 96 100 103 106 110 114 118 122 127 132 137 142 147 150 153 156 158 160 161 163 164 164 165 165 166 167 168 169 170 170 170 170 169 169 168 168 167 166 165
65 61 58 55 52 49 46 44 43 41 40 39 37 35 34 32 31 29 28 27 26 26 27 28 29 30 32 33 36 38 41 44 47 50 54 57 60 63 66 69 72 75 78 81 84 88 91 95 98 102 105 108 112 116 120 124 129 135 140 145 149 152 155 157 159 161 163 164 165 165 165 166 167 168 169 169 170 170 169 169 169 168 168 167 166 165
64 60 57 54 50 48 45 43 41 40 38 37 36 34 33 31 30 28 27 26 26 26 26 27 28 30 31 33 35 37 40 43 46 49 53 56 59 62 65 68 71 74 77 80 83 86 90 93 97 100 104 107 110 114 118 122 127 132 138 143 147 151 154 156 159 160 162 163 164 165 165 166 167 168 168 169 169 169 169 169 169 168 167 167 166 165
63 60 56 53 49 46 44 43 41 39 37 36 34 33 31 30 29 28 26 26 25 25 26 27 28 29 31 32 34 37 39 42 45 49 52 55 58 61 64 67 70 72 75 78 82 85 88 92 95 99 102 105 109 112 116 120 125 130 136 141 146 150 153 156 158 159 161 162 163 164 165 166 167 167 168 168 169 169 169 169 168 168 167 167 166 165
62 59 56 52 49 46 44 42 40 38 36 35 33 32 30 29 28 27 26 25 25 25 25 26 27 28 30 32 34 36 39 42 45 48 51 54 57 60 63 66 68 71 74 77 80 83 87 90 94 97 101 104 107 110 114 118 123 129 135 140 144 148 152 154 156 158 159 161 162 164 165 166 167 168 168 168 168 168 168 168 168 168 167 167 166 165
62 58 55 52 49 46 43 41 40 38 36 34 32 30 29 28 27 26 25 24 24 24 24 25 26 28 29 31 33 35 38 41 44 47 50 53 56 59 62 65 67 70 73 76 79 82 86 89 93 96 99 102 106 109 113 117 122 127 133 138 142 146 150 152 154 156 158 160 162 164 165 166 167 168 168 168 168 168 168 168 168 167 167 167 166 165
62 59 55 52 49 46 43 41 39 38 35 33 31 29 28 27 26 25 24 24 23 23 24 25 26 27 29 31 33 35 37 40 43 46 49 52 55 58 61 63 66 69 72 74 77 81 84 88 91 95 98 101 104 108 111 116 120 125 130 135 140 144 147 150 152 154 156 159 161 164 165 166 167 168 168 168 168 168 167 167 167 167 167 166 166 165
61 59 55 52 49 45 43 40 39 37 35 33 31 29 27 26 25 24 23 23 23 23 23 24 25 27 28 30 32 34 37 40 42 45 48 51 54 57 60 62 65 68 71 73 76 80 83 87 91 94 97 100 103 107 110 114 119 123 128 132 137 141 144 148 150 153 155 158 160 163 165 166 167 167 167 167 167 167 167 167 167 167 166 166 165 164
61 58 55 52 49 45 42 40 38 36 34 32 31 29 27 25 24 23 23 22 22 22 23 23 25 26 28 29 32 34 36 39 42 45 48 51 53 56 59 61 64 67 69 72 75 79 82 86 90 93 96 99 102 106 109 113 117 121 126 130 134 138 143 147 150 153 156 158 160 162 164 165 166 166 167 167 167 166 166 166 166 166 166 165 165 164
61 58 55 52 49 45 42 39 37 35 34 32 30 28 27 25 24 23 22 22 22 22 22 23 24 25 27 29 31 33 36 38 41 44 47 50 53 55 58 60 63 66 68 71 75 78 82 85 89 92 95 98 101 105 108 112 116 120 124 128 132 137 142 147 151 154 157 159 161 163 164 165 166 166 166 166 166 166 166 165 165 165 165 165 164 164
61 58 55 52 49 46 42 40 37 35 33 31 29 28 26 25 24 23 22 21 21 21 21 22 23 25 26 28 30 33 35 38 40 43 46 49 52 54 57 59 62 65 67 71 74 77 81 84 88 91 94 97 100 103 107 111 114 118 122 127 131 137 142 147 151 155 158 160 162 163 164 165 166 166 166 166 166 166 165 165 165 165 165 164 164 163
60 58 55 52 49 46 43 40 37 35 33 31 29 27 26 24 23 22 21 21 21 20 21 21 22 24 26 28 30 32 35 37 40 43 45 48 51 53 56 59 61 64 67 70 73 77 80 84 87 90 93 96 99 102 106 109 113 117 121 125 130 136 142 147 152 156 158 161 163 164 164 165 166 166 166 166 166 165 165 165 165 164 164 164 163 163
60 57 54 51 49 46 43 40 38 36 33 31 29 27 25 24 23 22 21 20 20 20 20 21 22 23 25 27 29 32 34 36 39 42 45 47 50 53 55 58 60 63 66 69 73 76 79 82 86 89 92 95 98 101 104 108 112 116 120 124 130 135 141 147 152 156 159 161 163 164 165 165 166 166 166 166 165 165 165 165 164 164 164 164 163 163
59 57 54 51 48 46 43 41 39 36 34 31 29 27 25 23 22 21 21 20 19 19 20 20 21 23 25 27 29 31 34 36 39 41 44 47 49 52 54 57 60 63 66 69 72 75 78 81 85 88 91 94 97 100 103 107 111 115 119 124 129 134 140 146 151 155 159 161 163 164 165 165 165 165 165 165 165 165 164 164 164 164 164 164 163 163
59 56 53 51 48 46 44 41 39 36 34 31 29 27 25 23 22 21 20 19 19 19 19 20 21 22 24 26 29 31 33 36 38 41 43 46 49 51 54 56 59 62 65 68 71 74 77 80 84 87 90 93 96 99 103 106 110 114 118 123 128 133 139 145 150 155 158 161 163 164 165 165 165 165 165 165 165 164 164 164 164 164 164 163 163 162
59 57 54 51 48 46 43 41 38 36 33 31 29 26 24 23 21 20 20 19 18 18 18 19 20 22 24 26 28 31 33 35 38 40 43 46 48 51 53 56 59 61 64 67 70 73 76 79 83 86 89 92 95 99 102 106 109 113 117 122 127 133 138 144 149 154 158 161 163 164 164 165 165 165 165 165 165 164 164 164 164 164 163 163 163 162
59 56 54 51 48 45 42 40 37 35 33 30 28 26 24 22 21 20 19 18 18 18 18 19 20 22 24 26 28 30 33 35 37 40 43 45 48 50 53 55 58 61 64 66 69 72 75 79 82 85 89 92 95 98 101 105 109 113 117 121 127 132 138 143 148 153 157 160 162 163 164 164 165 165 165 164 164 164 164 164 163 163 163 163 162 162
59 56 53 50 47 44 41 38 36 34 32 30 27 25 23 22 20 19 18 18 17 17 17 18 20 21 23 26 28 30 32 34 37 39 42 44 47 49 52 55 57 60 63 65 68 71 75 78 81 85 88 91 94 97 101 104 108 112 116 121 126 132 137 143 148 153 156 160 162 163 164 164 164 165 165 164 164 164 164 163 163 163 163 162 162 162
58 55 52 48 45 42 40 37 35 33 31 29 27 25 23 21 20 19 18 17 17 17 17 18 19 21 23 25 27 29 32 34 36 39 41 44 46 49 51 54 57 59 62 65 68 71 74 77 81 84 87 90 94 97 100 104 107 111 116 120 125 131 136 142 147 152 156 159 161 163 163 164 164 164 164 164 164 164 164 163 163 162 162 162 162 161
56 53 50 47 44 41 39 36 34 32 30 28 26 24 22 20 19 18 17 16 16 16 16 17 19 20 22 24 27 29 31 33 36 38 40 43 45 48 51 53 56 58 61 64 67 70 73 77 80 83 87 90 93 96 99 103 107 111 115 120 125 130 136 141 147 151 155 158 161 162 163 163 164 164 164 164 164 164 163 163 162 162 162 161 161 161
55 52 49 46 43 41 38 36 33 31 29 27 25 23 21 20 18 17 16 16 16 16 16 17 18 20 22 24 26 28 30 33 35 37 39 42 45 47 50 52 55 58 60 63 66 69 73 76 79 83 86 89 92 96 99 102 106 110 114 119 124 129 135 140 146 150 154 158 160 162 162 163 163 164 164 164 164 163 163 163 162 162 161 161 161 161
54 51 48 45 43 40 37 35 33 31 29 26 24 23 21 19 18 17 16 15 15 15 15 16 17 19 21 23 25 27 30 32 34 36 39 41 44 47 49 52 54 57 60 63 66 69 72 75 79 82 85 89 92 95 98 102 105 109 113 118 123 129 134 139 144 149 154 157 160 161 162 163 163 163 163 163 163 163 162 162 162 162 161 161 161 161
52 50 47 44 42 39 37 35 32 30 28 26 24 22 20 19 17 16 15 15 14 14 15 16 17 18 20 22 24 27 29 31 34 36 38 41 44 46 49 51 54 56 59 62 65 68 72 75 78 82 85 88 91 95 98 101 105 109 113 117 122 128 133 138 144 148 153 156 159 160 161 162 163 163 163 163 163 162 162 162 161 161 161 161 161 161
52 49 46 44 41 39 36 34 32 29 27 25 23 21 20 18 16 15 15 14 14 14 14 15 16 18 20 22 24 27 29 31 34 36 38 41 43 46 48 51 53 56 59 62 65 68 71 74 78 81 84 87 91 94 97 101 104 108 112 117 121 127 132 137 143 147 152 155 158 160 161 162 162 162 163 163 162 162 162 161 161 161 161 161 161 161
51 48 46 43 40 38 35 33 31 29 26 25 23 21 19 17 16 15 14 13 13 13 14 15 16 17 19 22 24 26 29 31 33 36 38 41 43 46 48 51 53 56 58 61 64 68 71 74 77 80 84 87 90 94 97 100 104 108 111 116 121 126 131 136 141 146 150 154 157 159 160 161 162 162 162 162 162 162 162 161 161 161 161 161 161 161
50 48 45 42 39 37 34 32 30 28 26 24 22 20 18 17 15 14 13 12 12 12 13 14 15 17 19 21 23 26 28 31 33 36 38 40 43 46 48 50 53 56 58 61 64 67 70 73 76 80 83 86 90 93 96 100 103 107 111 115 120 126 130 136 140 145 149 153 156 158 160 161 161 162 162 162 162 162 161 161 161 161 161 161 161 161
49 47 44 41 39 36 34 31 29 27 25 23 21 19 17 16 14 13 12 12 11 12 12 13 15 17 19 21 23 25 28 30 33 35 38 40 43 45 48 50 53 55 58 61 64 66 70 73 76 79 82 86 89 92 96 99 103 106 110 115 119 124 129 134 139 144 148 152 155 157 159 160 161 162 162 162 162 161 161 161 161 161 161 161 161 161
49 46 43 41 38 36 33 31 29 27 24 22 20 18 17 15 14 12 12 11 11 11 12 13 15 17 19 21 23 25 27 30 32 34 37 40 42 45 47 50 52 55 58 60 63 66 69 72 75 79 82 85 89 92 95 98 102 106 110 114 119 124 129 134 139 143 147 151 154 156 158 159 160 161 161 161 161 161 161 160 160 160 161 161 160 160
48 46 43 40 38 35 33 30 28 26 24 22 20 18 16 14 13 12 11 10 10 11 11 13 15 17 19 21 23 25 27 29 31 34 36 39 41 44 47 49 52 55 57 60 63 65 69 72 75 78 81 85 88 91 94 98 101 105 109 113 118 123 128 133 138 142 146 149 153 155 157 158 159 160 160 160 160 160 160 160 160 160 160 160 160 160
48 45 43 40 37 35 33 30 28 26 24 22 19 17 15 13 12 11 10 10 10 10 11 13 15 17 19 21 23 25 27 29 31 33 35 38 41 43 46 49 51 54 57 59 62 65 68 71 74 78 81 84 87 91 94 97 101 105 109 113 117 122 127 132 136 141 145 149 152 154 156 157 158 159 159 160 160 160 160 160 160 160 160 160 160 160
48 45 43 40 37 35 32 30 28 25 23 21 19 17 15 12 11 10 9 9 9 10 11 12 14 17 19 22 24 26 28 30 31 33 35 37 40 42 45 47 50 53 56 59 61 64 67 71 74 77 80 84 87 90 93 97 100 104 108 112 117 121 126 131 135 140 144 148 151 153 155 156 157 158 159 160 160 160 160 160 160 160 160 160 160 159
48 45 43 40 37 35 32 30 27 25 23 21 19 17 14 12 10 9 8 8 9 9 11 12 14 16 19 21 24 26 29 31 33 34 36 38 40 42 44 47 49 52 55 58 61 64 67 70 73 77 80 83 86 90 93 96 100 103 107 112 116 121 125 130 135 139 143 146 149 152 154 155 157 158 158 159 159 160 160 160 160 160 160 160 160 159
48 45 42 40 37 34 32 29 27 25 23 21 19 16 14 12 10 8 7 7 8 9 10 12 13 15 18 20 23 26 29 31 34 36 37 39 40 42 44 47 49 51 54 57 59 63 66 69 73 76 79 83 86 89 92 96 99 103 107 111 115 120 124 129 134 138 141 145 148 151 153 155 156 157 158 158 159 159 159 159 159 159 159 159 159 159
47 45 42 40 37 34 32 29 27 24 22 20 18 16 14 11 9 8 7 6 7 9 10 12 14 16 18 20 22 24 27 30 33 36 38 40 41 43 45 47 49 51 53 56 59 62 65 68 72 75 79 82 85 88 92 95 99 102 106 110 114 119 123 128 132 136 140 144 147 149 151 153 155 156 157 157 158 159 159 159 159 159 159 159 159 158
47 44 42 39 37 34 32 29 27 24 22 20 18 16 13 11 9 7 6 6 7 8 10 12 14 16 18 20 22 24 26 29 32 34 37 39 41 43 45 47 49 51 54 56 58 61 64 67 71 74 78 81 85 88 91 95 98 102 105 109 113 118 122 127 131 135 139 142 145 148 150 152 153 154 155 157 158 158 159 159 159 159 158 158 158 158
46 44 41 39 36 34 31 29 26 24 22 20 18 15 13 11 9 7 6 6 6 7 9 11 13 15 18 20 22 24 26 28 31 33 36 38 41 43 45 47 49 51 54 56 58 61 63 67 70 73 77 80 84 87 90 94 97 101 105 109 113 117 121 125 130 134 137 141 144 146 149 150 152 153 154 156 157 157 158 158 158 158 158 158 158 158
Wind_Direction
327 325 324 323 322 320 319 317 314 312 309 306 302 299 295 291 286 282 277 273 268 264 260 256 251 247 242 238 234 230 227 224 221 219 217 216 215 214 212 211 211 210 209 208 208 208 208 208 208 208 208 208 208 208 207 207 207 206 206 206 206 206 207 207 207 207 207 207 206 206 206 206 206 206 206 206 206 206 206 206 207 207 207 208 209 209
327 325 324 323 322 321 319 317 315 313 310 307 304 300 297 292 287 282 278 273 269 264 260 256 251 247 242 238 234 230 227 224 221 218 217 216 215 213 212 211 210 210 209 208 208 207 207 208 208 208 207 207 207 207 207 207 206 206 206 206 206 206 206 206 206 206 206 206 206 206 206 205 206 206 206 206 206 206 206 206 206 207 207 207 208 209
327 325 324 323 322 321 320 318 316 314 312 308 305 301 298 293 289 283 278 274 269 265 261 256 252 247 242 238 234 230 226 223 220 218 216 215 214 213 212 211 210 209 209 208 207 207 207 207 207 207 207 207 207 207 207 206 206 206 205 205 205 205 206 206 206 206 206 206 206 205 205 205 205 206 206 206 206 206 206 206 206 207 207 207 208 208
327 326 325 323 323 321 320 319 317 315 313 310 306 303 299 295 290 285 279 274 269 265 260 256 252 247 242 238 233 229 226 223 220 218 216 214 213 213 212 211 210 209 209 208 207 207 206 206 207 207 207 207 207 207 207 206 206 205 205 205 205 205 205 205 205 205 205 205 205 205 205 205 205 205 206 206 206 206 206 206 206 206 207 207 207 208
328 326 325 324 323 322 320 319 318 316 314 311 308 304 300 295 291 286 280 275 270 265 260 256 251 247 242 237 233 229 226 222 220 217 215 214 213 212 211 211 210 209 208 208 207 207 206 206 206 206 207 207 207 207 206 206 205 205 205 205 205 205 205 205 205 205 205 205 205 205 204 204 205 205 205 205 206 206 206 206 206 206 206 207 207 207
328 327 325 324 323 322 321 319 318 317 315 312 309 305 301 296 292 287 281 275 270 265 260 256 251 247 242 237 233 229 225 222 219 217 215 213 212 211 211 210 209 208 208 207 207 207 206 206 206 206 206 206 207 207 206 206 205 205 205 204 205 205 205 205 205 205 205 205 204 204 204 204 204 204 205 205 205 205 206 206 206 206 206 206 207 207
329 327 326 324 323 322 321 320 318 316 315 313 309 305 301 297 292 287 281 276 270 265 260 256 251 247 242 237 233 229 225 222 219 217 215 213 212 211 210 210 209 208 207 207 207 206 206 206 205 205 206 206 206 206 206 206 205 205 204 204 204 204 204 204 204 204 204 204 204 204 204 204 204 204 204 204 205 205 205 205 205 206 206 206 206 207
329 327 326 325 324 322 321 319 317 316 314 312 309 306 301 297 293 288 282 276 271 265 260 255 251 246 242 237 233 229 225 222 219 216 215 213 211 210 209 209 209 208 207 206 206 206 206 206 205 205 205 205 206 206 206 205 205 205 204 204 204 204 204 204 204 204 204 204 204 203 203 203 203 203 203 204 204 205 205 205 205 205 206 206 206 206
330 328 327 325 324 323 321 319 317 315 314 312 309 306 301 297 292 288 283 276 271 265 260 255 250 246 241 237 232 228 225 221 218 216 214 213 211 210 209 209 208 208 207 206 206 206 206 206 205 205 205 205 205 205 205 205 205 204 204 204 204 203 203 204 204 204 204 203 203 203 203 203 203 203 203 203 204 204 204 205 205 205 205 205 206 206
330 328 327 325 324 322 320 318 316 314 313 311 309 306 302 297 292 287 282 277 271 265 260 255 250 245 241 236 232 228 224 221 218 216 214 213 211 210 209 208 208 207 207 206 205 205 205 205 205 205 205 204 204 204 205 205 204 204 204 203 203 203 203 203 203 203 203 203 203 203 203 203 203 203 203 203 203 204 204 204 204 205 205 205 205 205
330 328 327 325 323 321 319 317 315 313 312 310 309 306 303 298 293 288 282 276 271 265 259 254 249 245 240 236 232 228 224 221 218 216 214 213 211 210 209 208 207 207 207 206 205 205 205 205 205 205 204 204 204 204 204 204 204 204 204 203 203 203 203 203 203 203 203 203 202 202 202 202 202 202 202 203 203 203 203 204 204 204 204 205 205 205
330 328 327 325 322 320 318 315 313 311 309 308 306 304 302 298 293 288 282 277 270 264 259 253 248 243 239 235 231 227 224 220 218 215 214 212 211 210 209 208 207 207 207 206 205 205 204 205 205 205 204 204 203 203 203 203 203 203 203 203 203 203 203 203 202 202 202 202 202 202 202 202 202 202 202 202 203 203 203 203 203 204 204 204 204 205
329 328 326 324 322 319 317 314 311 309 307 305 304 302 299 296 293 288 282 276 270 264 258 252 247 243 238 234 230 226 223 220 217 215 213 212 211 210 209 208 207 207 206 206 205 204 204 204 204 205 204 204 203 203 203 203 203 203 203 203 203 203 203 202 202 202 202 202 202 202 202 201 201 201 202 202 202 203 203 203 203 203 204 204 204 204
329 327 326 323 321 318 316 313 311 308 306 304 302 300 298 295 291 287 282 276 270 263 257 252 246 242 237 233 229 226 223 219 217 215 213 212 211 210 209 208 207 206 206 206 205 204 204 204 204 204 204 204 203 203 202 202 202 202 202 203 203 203 202 202 202 202 202 202 202 202 201 201 201 201 202 202 202 202 202 203 203 203 203 204 204 204
329 328 326 324 322 319 317 314 312 309 307 305 303 300 297 294 291 286 281 275 269 263 257 251 245 241 236 232 228 225 222 219 216 214 213 212 211 210 209 208 207 206 206 205 205 204 204 203 203 204 204 204 203 203 202 202 202 202 202 202 202 202 202 202 202 201 201 201 201 202 201 201 201 201 201 202 202 202 202 202 202 203 203 203 203 203
330 329 327 325 323 320 318 315 313 311 308 306 303 300 297 294 290 286 281 275 269 262 256 250 245 240 236 231 228 224 221 218 216 214 212 211 210 209 208 208 207 206 205 205 205 204 203 203 203 203 203 203 203 203 202 202 201 201 201 202 202 202 202 202 201 201 201 201 201 201 201 201 201 201 201 202 202 202 202 202 202 202 203 203 203 203
331 329 328 326 324 321 319 317 314 312 310 307 304 301 297 294 290 285 280 275 268 262 256 250 244 239 235 231 227 224 221 218 216 214 212 211 210 209 208 207 206 206 205 205 204 204 203 203 202 202 203 203 203 202 202 201 201 201 201 201 201 202 202 201 201 201 201 200 200 201 201 201 201 201 202 202 202 202 202 202 202 202 202 202 203 203
331 330 328 327 325 323 320 318 316 313 310 307 304 301 297 294 290 285 280 274 268 262 255 249 243 239 234 230 227 223 221 218 215 214 212 210 209 209 208 207 206 205 205 204 204 204 203 203 202 202 202 202 203 202 202 201 201 201 201 201 201 201 201 201 201 201 200 200 200 200 200 201 201 201 202 202 202 202 202 201 201 202 202 202 202 202
331 330 329 328 326 324 322 319 317 314 311 308 305 301 297 293 290 285 280 274 268 261 255 249 243 238 233 230 226 223 220 218 215 213 212 210 209 208 207 206 206 205 204 204 204 203 203 202 202 202 202 202 202 202 202 201 201 200 200 200 200 201 201 201 201 201 200 200 200 200 200 200 201 201 201 202 202 202 201 201 201 201 201 202 202 202
332 331 330 329 328 326 324 321 318 316 313 309 306 302 298 294 290 285 280 274 268 261 254 248 242 237 233 229 225 222 220 217 215 213 212 210 209 208 207 206 205 204 204 204 203 203 203 202 202 201 201 201 202 202 201 201 200 200 200 200 200 200 200 201 200 200 200 200 199 199 200 200 200 201 201 201 202 202 201 201 201 201 201 201 202 202
332 332 331 330 329 327 326 323 320 317 314 310 307 303 299 294 290 285 280 274 267 260 254 248 242 237 232 228 224 221 219 217 215 213 211 210 209 208 207 206 205 204 204 203 203 202 202 202 202 201 201 201 201 201 201 201 200 200 200 200 200 200 200 200 200 200 200 199 199 199 199 200 200 201 201 201 201 201 201 201 201 201 201 201 201 201
333 333 332 331 330 329 327 324 321 318 315 312 308 304 299 295 290 285 280 274 267 261 254 247 241 236 231 227 223 221 218 216 214 212 211 209 208 207 206 205 204 204 203 202 202 202 202 202 201 201 200 200 200 200 200 200 200 200 200 199 199 199 199 200 200 200 200 199 199 199 199 200 200 200 201 201 201 201 201 201 201 201 201 201 201 201
334 334 333 332 331 329 328 325 322 319 316 313 309 306 301 296 291 286 281 274 267 260 253 247 241 235 230 226 223 220 217 215 214 212 210 209 208 207 206 205 204 203 202 202 202 201 201 201 201 201 200 200 200 200 200 200 200 200 199 199 199 199 199 199 199 199 199 199 199 199 200 200 200 200 201 201 201 201 201 201 201 201 201 201 201 201
335 334 334 333 331 330 328 326 324 321 318 315 311 307 302 297 292 287 281 274 268 260 253 246 240 235 230 225 222 219 217 215 213 211 210 208 207 206 205 204 203 202 202 201 201 201 201 201 201 200 200 199 199 199 199 200 200 199 199 199 198 198 198 198 198 199 199 199 199 200 200 200 200 200 200 201 201 201 201 201 201 201 201 201 201 201
335 335 334 333 332 330 329 327 325 322 319 316 312 308 304 299 294 288 281 275 268 261 253 246 240 234 229 225 221 218 216 214 212 211 209 208 207 206 205 204 203 202 201 201 200 200 200 200 200 200 199 199 198 198 199 199 199 199 199 198 198 197 197 197 198 198 198 199 199 199 200 200 200 200 200 200 201 201 201 201 201 201 201 201 201 201
336 335 335 333 332 331 330 328 326 324 321 317 314 310 305 300 295 288 282 275 268 261 254 247 240 233 228 224 220 218 215 213 212 210 209 207 206 205 204 203 202 201 201 200 200 200 200 200 200 199 199 198 198 198 198 198 198 198 198 198 197 197 196 197 197 197 198 198 199 199 199 200 200 200 200 200 200 200 200 200 200 200 200 200 201 201
336 336 335 334 333 332 331 329 327 325 322 319 315 311 306 301 295 289 283 276 268 261 253 246 239 233 228 223 220 217 215 213 211 210 208 207 206 204 203 202 201 201 200 200 200 200 200 199 199 199 199 198 197 197 197 198 198 198 198 197 197 196 196 196 196 197 197 198 198 199 199 200 200 200 200 200 200 200 200 200 200 200 200 200 200 200
336 336 335 334 333 332 331 330 328 326 324 320 317 312 307 301 296 290 283 276 269 261 254 246 239 233 227 223 219 216 214 212 210 209 207 206 205 204 203 202 201 200 200 200 199 199 199 199 199 199 198 198 197 197 197 197 197 197 197 197 196 196 196 195 196 196 197 198 198 199 199 199 200 200 200 200 200 200 200 200 200 200 200 200 200 200
336 336 336 335 334 333 332 331 329 327 324 321 317 313 308 302 296 290 283 276 268 261 253 246 238 232 226 222 218 215 213 211 209 208 207 205 204 203 202 201 200 200 199 199 199 199 199 199 198 198 198 197 197 196 196 196 197 197 197 197 196 196 195 195 195 196 197 197 198 198 199 199 199 200 200 200 200 200 200 200 200 200 200 200 200 200
337 337 336 336 335 334 332 331 329 326 324 321 318 313 308 303 296 290 283 276 269 261 253 245 238 231 225 221 217 214 212 210 209 207 206 205 203 202 201 200 200 199 199 198 198 198 198 198 198 198 197 197 196 196 196 196 196 196 196 196 196 195 195 195 195 196 196 197 198 198 199 199 199 199 199 200 200 200 200 200 200 200 200 200 200 200
337 337 337 336 335 334 332 330 328 326 323 321 318 314 309 303 297 290 283 276 269 261 253 244 237 231 225 220 216 213 211 209 208 207 205 204 203 202 201 200 199 199 198 198 198 198 197 197 197 197 197 196 196 196 195 195 195 196 196 196 195 195 195 195 195 195 196 197 197 198 198 199 199 199 199 199 199 199 199 199 199 199 199 199 199 199
338 338 337 336 335 333 331 329 327 325 323 320 317 314 309 304 297 291 283 276 268 261 252 244 237 230 224 220 216 213 210 209 207 206 205 203 202 201 200 199 199 198 198 197 197 197 197 197 197 197 196 196 196 195 195 195 195 195 195 195 195 195 195 195 195 195 196 196 197 198 198 198 199 199 199 199 199 199 199 199 199 199 199 199 199 199
338 337 337 336 334 333 331 329 327 325 323 320 318 314 310 304 297 290 284 276 268 260 252 244 236 230 224 219 215 212 210 208 207 205 204 203 201 200 200 199 198 198 197 197 197 197 196 196 196 196 196 196 195 195 195 195 195 195 195 195 195 195 194 194 195 195 196 196 197 198 198 198 198 199 199 199 199 199 199 199 199 199 199 199 199 199
338 337 336 335 334 332 331 329 328 326 323 321 318 315 310 304 298 291 284 276 268 260 251 243 236 229 224 219 215 212 209 207 206 205 204 202 201 200 199 198 198 197 197 196 196 196 196 196 196 196 196 195 195 195 194 194 194 194 194 194 194 194 194 194 194 195 195 196 197 197 198 198 198 198 199 199 199 199 199 199 199 199 199 199 199 199
337 337 336 335 334 333 332 330 328 327 324 322 319 315 310 305 298 291 283 276 267 259 250 242 235 229 223 219 215 211 209 207 205 204 203 202 201 200 199 198 197 197 196 196 196 196 196 196 196 196 195 195 195 194 194 194 194 194 194 194 194 194 194 194 194 195 195 196 197 197 198 198 198 198 198 198 199 199 198 198 199 199 199 199 199 199
338 337 337 336 335 334 333 331 330 328 325 323 320 316 311 306 299 291 284 275 267 258 250 242 234 228 223 218 214 211 208 206 205 203 202 201 200 199 198 198 197 196 196 196 195 195 195 195 195 195 195 195 195 194 194 194 194 194 194 194 194 194 194 194 194 194 195 196 196 197 198 198 198 198 198 198 198 198 198 198 198 198 198 199 199 199
338 338 338 337 336 335 334 332 331 329 327 324 320 317 312 306 299 291 283 275 267 258 249 241 234 228 222 218 214 210 207 205 204 202 201 201 200 199 198 197 197 196 196 195 195 195 195 195 195 195 195 194 194 194 194 193 193 193 193 193 194 194 194 194 194 194 195 195 196 197 197 198 198 198 198 198 198 198 198 198 198 198 198 198 199 199
339 339 339 338 337 336 334 333 331 330 328 325 322 317 313 307 300 292 283 275 266 257 249 240 233 227 221 217 213 210 207 205 203 201 200 200 199 198 198 197 196 196 195 195 195 195 195 195 195 195 195 194 194 194 193 193 193 193 193 193 193 193 194 194 194 194 195 195 196 197 197 198 198 198 198 198 198 198 198 198 198 198 198 198 198 199
340 340 339 339 338 337 335 334 332 331 329 326 323 319 314 308 301 293 284 275 266 257 248 240 232 226 220 216 212 209 206 204 202 201 200 199 198 198 197 196 196 195 195 195 195 195 194 194 194 194 194 194 194 194 193 193 193 193 193 193 193 193 193 194 194 194 195 195 196 196 197 197 198 198 198 198 198 198 198 198 198 198 198 198 198 198
341 341 340 339 338 338 336 335 333 332 330 327 324 320 315 309 302 293 284 275 265 256 247 238 231 225 219 215 211 208 205 203 201 200 199 198 198 197 196 196 195 195 195 195 195 194 194 194 194 194 194 194 194 193 193 193 193 193 193 193 193 193 193 193 194 194 194 195 196 196 197 197 197 198 198 198 198 198 197 197 197 197 198 198 198 198
341 341 341 340 339 338 337 336 334 333 331 328 325 321 317 310 303 294 285 274 264 254 245 237 230 223 218 214 210 207 205 202 201 199 198 198 197 197 196 195 195 195 195 194 194 194 194 194 194 194 194 194 194 193 193 193 193 192 192 193 193 193 193 193 194 194 194 195 196 196 197 197 197 197 198 198 197 197 197 197 197 197 198 198 198 198
342 342 341 341 340 339 338 337 335 334 332 329 327 323 318 312 304 295 285 274 263 253 244 236 228 222 217 213 209 207 204 202 200 199 198 197 197 196 196 195 195 194 194 194 194 194 194 194 194 194 194 194 194 193 193 193 192 192 192 192 193 193 193 193 194 194 194 195 195 196 196 197 197 197 197 197 197 197 197 197 197 197 197 198 198 198
343 342 342 341 341 340 339 338 336 335 333 331 327 324 319 313 306 297 286 274 262 251 242 234 227 221 216 212 208 206 203 202 200 199 198 197 197 196 196 195 195 194 194 194 194 194 194 194 194 194 194 194 193 193 193 193 192 192 192 192 192 193 193 193 193 194 194 195 195 196 196 197 197 197 197 197 197 197 197 197 197 197 197 197 198 198
343 343 343 342 342 341 340 339 338 336 334 332 328 325 320 316 308 299 288 274 261 249 239 232 226 220 215 210 206 204 202 200 199 198 198 197 197 196 196 195 195 194 194 194 194 194 194 194 194 194 194 194 193 193 193 193 192 192 192 192 192 192 193 193 193 194 194 195 195 196 196 197 197 197 197 197 197 197 197 197 197 197 197 197 198 198
344 344 343 343 342 342 341 340 339 337 335 332 329 326 321 317 310 300 289 275 260 248 237 230 224 219 214 209 205 202 200 198 198 197 197 197 197 197 196 195 195 194 194 194 194 194 194 193 194 193 194 194 193 193 193 193 192 192 192 192 192 192 193 193 193 194 194 195 195 196 196 196 197 197 197 197 197 197 197 197 197 197 197 197 198 198
345 344 344 343 343 343 342 341 340 338 336 334 330 326 322 318 311 302 290 275 260 246 235 228 224 220 215 210 205 200 197 196 195 195 196 196 196 196 196 196 195 195 194 194 194 194 194 193 193 193 194 194 193 193 193 193 192 192 192 192 192 192 193 193 193 193 194 194 195 195 196 196 196 197 197 197 197 197 197 196 196 197 197 197 197 198
345 345 344 344 344 343 343 342 341 340 338 335 331 327 323 318 312 303 291 276 260 244 233 226 222 220 217 212 207 201 197 194 193 193 194 194 195 195 196 195 195 195 195 194 194 194 194 193 193 193 193 193 193 193 193 193 192 192 192 192 192 192 193 193 193 194 194 194 195 195 196 196 196 197 197 197 197 196 196 196 196 196 197 197 197 197
346 345 345 344 344 344 343 343 342 341 339 336 332 328 324 319 313 304 291 275 260 245 232 223 219 217 216 214 210 205 199 195 192 191 191 192 193 194 195 195 195 195 195 195 194 194 194 194 194 194 193 193 193 193 193 192 192 192 192 192 192 192 193 193 193 194 194 194 195 195 195 196 196 196 197 197 196 196 196 196 196 196 197 197 197 197
346 345 345 345 344 344 344 344 343 342 340 337 333 329 325 320 314 305 291 275 258 245 233 222 216 213 212 212 210 207 202 198 194 192 191 191 191 192 193 193 194 194 195 195 195 195 194 194 194 194 194 193 193 193 193 192 192 192 192 192 192 192 193 193 193 194 194 194 195 195 195 196 196 196 196 196 196 196 196 196 196 196 196 197 197 197
346 346 345 345 345 344 344 344 344 343 342 339 335 331 326 321 315 306 291 272 256 242 232 224 216 212 208 207 207 206 203 200 197 194 192 191 191 191 192 192 193 193 194 194 194 195 195 195 195 194 194 194 193 193 193 193 192 192 192 192 192 193 193 193 193 194 194 194 194 195 195 195 196 196 196 196 196 196 196 196 196 196 196 197 197 197
347 346 346 345 345 345 345 345 344 344 343 340 336 332 328 323 317 308 292 272 251 238 230 223 218 213 208 206 204 203 201 200 197 195 193 192 192 192 192 192 192 192 193 193 194 194 195 195 195 195 194 194 193 193 193 193 192 192 192 192 192 193 193 193 193 194 194 194 194 195 195 195 196 196 196 196 196 196 196 196 196 196 196 196 197 197
Height
10043 10038 10033 10028 10024 10020 10017 10013 10010 10008 10005 10002 10000 9998 9997 9995 9994 9993 9992 9991 9990 9990 9990 9991 9992 9993 9996 9998 10000 10003 10006 10009 10013 10017 10020 10024 10028 10032 10037 10042 10047 10053 10059 10067 10074 10082 10090 10098 10107 10115 10125 10134 10143 10154 10165 10178 10191 10204 10217 10230 10243 10255 10269 10283 10298 10313 10327 10340 10353 10368 10383 10395 10407 10420 10433 10445 10457 10469 10482 10493 10505 10517 10528 10540 10552 10563
10039 10034 10029 10025 10020 10016 10012 10009 10007 10003 10000 9998 9996 9994 9992 9991 9990 9989 9988 9987 9987 9987 9987 9987 9988 9990 9992 9993 9996 9999 10002 10005 10008 10012 10015 10019 10023 10028 10032 10037 10042 10048 10054 10061 10068 10076 10083 10092 10101 10110 10118 10128 10137 10147 10158 10170 10183 10197 10209 10222 10235 10248 10261 10275 10290 10305 10318 10331 10345 10360 10375 10388 10400 10412 10425 10437 10450 10462 10475 10487 10499 10511 10523 10535 10546 10557
10035 10030 10025 10020 10016 10012 10008 10004 10002 9999 9997 9993 9992 9990 9988 9987 9986 9985 9984 9983 9983 9982 9983 9983 9984 9985 9987 9989 9992 9995 9997 10000 10003 10007 10010 10015 10018 10023 10028 10032 10038 10043 10049 10056 10062 10070 10078 10086 10095 10103 10113 10122 10131 10140 10152 10164 10177 10190 10202 10213 10226 10240 10254 10268 10282 10295 10309 10322 10337 10353 10368 10382 10394 10406 10418 10430 10443 10456 10469 10482 10495 10507 10518 10529 10540 10551
10031 10025 10020 10016 10012 10008 10003 10000 9997 9995 9992 9990 9988 9986 9985 9983 9982 9981 9980 9980 9979 9978 9979 9979 9980 9982 9983 9985 9988 9990 9993 9996 9999 10003 10006 10010 10014 10019 10023 10028 10033 10039 10045 10051 10058 10065 10072 10080 10088 10097 10107 10115 10125 10134 10145 10158 10170 10183 10195 10207 10219 10233 10248 10261 10274 10287 10300 10315 10331 10347 10363 10376 10388 10400 10413 10425 10438 10452 10465 10478 10491 10502 10513 10524 10535 10545
10028 10022 10016 10012 10008 10003 9999 9996 9993 9991 9988 9986 9984 9982 9980 9980 9978 9977 9977 9976 9975 9975 9975 9975 9977 9978 9979 9982 9983 9987 9989 9992 9995 9998 10002 10005 10009 10014 10019 10024 10029 10034 10040 10047 10053 10060 10067 10074 10083 10092 10100 10109 10118 10128 10139 10151 10163 10175 10188 10200 10213 10226 10240 10253 10267 10280 10293 10308 10325 10341 10356 10368 10381 10394 10407 10421 10435 10448 10461 10473 10486 10497 10508 10519 10530 10540
10025 10018 10012 10008 10003 9999 9995 9992 9989 9987 9985 9983 9980 9978 9977 9975 9975 9973 9973 9972 9972 9972 9972 9972 9973 9974 9976 9978 9980 9982 9985 9988 9991 9994 9997 10000 10004 10009 10014 10020 10025 10030 10035 10042 10048 10055 10062 10069 10077 10085 10094 10103 10113 10123 10133 10145 10157 10170 10182 10195 10208 10221 10234 10247 10261 10275 10288 10302 10318 10334 10348 10362 10374 10388 10402 10415 10428 10441 10454 10467 10479 10490 10502 10513 10524 10534
10022 10015 10010 10004 10000 9996 9992 9988 9985 9983 9981 9979 9977 9975 9973 9972 9971 9970 9970 9969 9968 9968 9968 9968 9970 9971 9972 9974 9977 9978 9982 9984 9987 9990 9993 9997 10000 10004 10009 10015 10020 10025 10031 10037 10044 10051 10057 10064 10072 10080 10088 10098 10108 10118 10128 10140 10152 10165 10177 10190 10203 10217 10230 10243 10257 10270 10283 10297 10312 10327 10342 10355 10368 10382 10395 10408 10420 10433 10446 10459 10471 10483 10495 10507 10517 10527
10018 10012 10006 10001 9996 9992 9988 9985 9982 9978 9977 9975 9974 9972 9970 9968 9967 9967 9966 9965 9965 9965 9965 9965 9967 9967 9969 9970 9973 9975 9978 9980 9983 9986 9990 9993 9996 10000 10005 10010 10016 10021 10027 10032 10039 10046 10053 10060 10067 10075 10083 10093 10103 10113 10125 10137 10148 10160 10173 10185 10198 10210 10223 10237 10250 10264 10277 10292 10307 10322 10335 10348 10362 10375 10387 10400 10412 10425 10438 10450 10463 10475 10487 10498 10509 10520
10017 10010 10003 9998 9993 9988 9985 9981 9978 9975 9973 9972 9970 9968 9967 9966 9964 9963 9963 9962 9962 9962 9962 9962 9963 9964 9965 9967 9969 9972 9974 9977 9980 9983 9986 9989 9992 9996 10000 10005 10011 10017 10022 10028 10035 10042 10048 10055 10062 10070 10078 10088 10098 10109 10120 10132 10144 10156 10168 10180 10191 10203 10215 10229 10243 10257 10272 10287 10302 10316 10330 10343 10356 10368 10380 10392 10403 10416 10429 10442 10455 10467 10478 10490 10500 10512
10015 10008 10002 9997 9992 9987 9983 9978 9975 9972 9969 9967 9966 9965 9963 9962 9961 9960 9960 9959 9958 9958 9958 9959 9960 9961 9962 9964 9966 9968 9971 9973 9976 9979 9982 9985 9989 9992 9997 10001 10007 10012 10018 10023 10030 10037 10045 10052 10059 10066 10074 10083 10093 10104 10115 10127 10139 10151 10163 10173 10185 10197 10208 10222 10235 10250 10266 10281 10296 10310 10323 10336 10349 10362 10373 10383 10395 10407 10420 10433 10446 10458 10470 10481 10492 10503
10012 10006 10000 9995 9990 9986 9982 9977 9973 9969 9966 9964 9963 9961 9960 9959 9958 9957 9957 9956 9955 9955 9955 9956 9957 9958 9959 9960 9963 9965 9967 9970 9973 9976 9979 9982 9985 9989 9993 9997 10003 10008 10014 10020 10026 10033 10040 10048 10055 10062 10070 10079 10088 10098 10110 10122 10133 10145 10157 10168 10179 10191 10203 10216 10229 10243 10259 10275 10289 10302 10315 10328 10342 10354 10365 10376 10387 10399 10412 10425 10437 10450 10461 10473 10484 10496
10010 10004 9998 9993 9988 9984 9980 9976 9972 9968 9965 9962 9960 9958 9957 9956 9955 9954 9953 9953 9953 9952 9952 9953 9953 9955 9956 9957 9959 9962 9964 9967 9970 9972 9975 9978 9982 9986 9990 9994 9999 10005 10010 10017 10022 10028 10036 10043 10052 10059 10067 10075 10083 10093 10104 10115 10127 10140 10152 10162 10174 10186 10198 10210 10223 10238 10252 10268 10282 10294 10307 10321 10334 10347 10358 10368 10379 10391 10403 10417 10429 10442 10453 10465 10477 10488
10008 10002 9997 9992 9987 9982 9978 9974 9970 9967 9963 9961 9958 9956 9954 9953 9952 9951 9950 9950 9950 9950 9950 9950 9951 9952 9953 9954 9956 9958 9961 9963 9966 9969 9972 9975 9979 9983 9987 9991 9996 10001 10007 10013 10019 10025 10032 10040 10047 10055 10063 10071 10080 10089 10099 10110 10122 10133 10145 10157 10168 10181 10193 10206 10219 10233 10247 10262 10275 10287 10300 10313 10326 10338 10349 10360 10371 10383 10396 10409 10422 10433 10445 10457 10469 10482
10004 9999 9994 9989 9984 9980 9975 9972 9968 9964 9961 9958 9955 9953 9952 9950 9949 9948 9948 9947 9947 9947 9947 9947 9948 9948 9950 9952 9953 9955 9958 9960 9963 9966 9969 9972 9976 9980 9983 9988 9993 9998 10003 10010 10016 10022 10028 10036 10043 10052 10060 10068 10076 10085 10094 10105 10116 10128 10140 10152 10163 10176 10188 10201 10214 10228 10242 10257 10270 10282 10295 10307 10319 10330 10341 10352 10363 10375 10388 10402 10414 10427 10438 10450 10463 10475
10000 9995 9990 9985 9980 9975 9972 9968 9964 9961 9958 9955 9953 9950 9949 9947 9946 9945 9945 9944 9944 9944 9944 9944 9945 9946 9947 9948 9950 9952 9955 9957 9960 9963 9966 9969 9973 9977 9981 9985 9990 9995 10001 10007 10013 10019 10025 10032 10040 10048 10056 10064 10072 10080 10090 10100 10110 10122 10133 10145 10158 10171 10183 10196 10209 10223 10237 10252 10265 10278 10290 10302 10313 10323 10333 10344 10356 10368 10382 10395 10408 10420 10432 10444 10457 10469
9994 9990 9985 9980 9976 9972 9968 9964 9961 9957 9954 9952 9950 9948 9946 9945 9943 9943 9942 9942 9942 9941 9941 9942 9942 9943 9944 9946 9948 9950 9952 9955 9957 9960 9963 9966 9970 9973 9978 9982 9987 9992 9998 10003 10010 10016 10023 10029 10036 10044 10052 10060 10068 10077 10085 10095 10105 10116 10128 10140 10153 10166 10178 10192 10204 10217 10231 10245 10259 10272 10285 10297 10308 10318 10328 10338 10349 10362 10375 10388 10401 10413 10426 10438 10450 10463
9990 9986 9982 9977 9972 9968 9964 9961 9958 9954 9951 9948 9947 9945 9943 9942 9941 9940 9940 9939 9938 9938 9938 9939 9940 9940 9942 9943 9945 9947 9950 9952 9954 9957 9960 9963 9967 9970 9975 9979 9984 9989 9995 10000 10007 10013 10020 10026 10033 10040 10048 10057 10065 10073 10082 10092 10102 10112 10123 10135 10148 10161 10173 10187 10199 10211 10224 10238 10252 10265 10279 10292 10302 10312 10322 10332 10343 10356 10368 10382 10395 10407 10420 10432 10444 10456
9987 9983 9978 9973 9969 9965 9961 9958 9955 9952 9949 9946 9944 9942 9940 9939 9938 9937 9937 9937 9936 9936 9936 9937 9937 9938 9940 9941 9943 9945 9947 9950 9952 9955 9957 9960 9964 9968 9972 9977 9982 9987 9992 9998 10004 10010 10017 10023 10030 10037 10044 10053 10062 10070 10079 10088 10098 10109 10120 10132 10143 10156 10168 10181 10193 10205 10218 10232 10245 10259 10272 10285 10296 10307 10317 10327 10338 10350 10363 10376 10388 10401 10413 10425 10437 10449
9984 9979 9975 9970 9966 9962 9958 9955 9952 9949 9946 9943 9942 9940 9938 9937 9936 9935 9934 9934 9933 9933 9934 9934 9935 9936 9937 9939 9941 9943 9945 9948 9950 9952 9955 9958 9962 9965 9969 9973 9978 9984 9989 9995 10001 10008 10015 10021 10027 10033 10041 10049 10058 10067 10076 10085 10095 10105 10116 10126 10138 10150 10163 10176 10188 10201 10214 10227 10241 10255 10267 10278 10290 10300 10311 10322 10333 10345 10358 10370 10383 10395 10407 10418 10430 10443
9981 9976 9972 9967 9963 9959 9955 9952 9949 9947 9943 9942 9939 9937 9936 9935 9933 9933 9932 9932 9932 9932 9932 9932 9933 9934 9935 9937 9939 9941 9943 9946 9948 9950 9953 9956 9959 9963 9967 9971 9976 9981 9987 9992 9998 10005 10012 10018 10024 10031 10038 10046 10055 10064 10073 10082 10092 10101 10111 10121 10132 10145 10158 10170 10183 10197 10210 10225 10238 10250 10262 10272 10283 10294 10305 10317 10328 10340 10352 10365 10377 10388 10400 10412 10424 10436
9977 9972 9968 9963 9960 9956 9952 9949 9946 9943 9942 9939 9937 9935 9933 9932 9931 9930 9930 9930 9929 9930 9930 9930 9931 9932 9933 9935 9937 9938 9941 9943 9946 9948 9951 9954 9957 9961 9965 9969 9973 9978 9984 9990 9997 10003 10010 10016 10022 10028 10035 10043 10052 10061 10070 10079 10088 10097 10106 10117 10128 10140 10153 10167 10180 10193 10207 10220 10233 10244 10255 10265 10277 10287 10298 10310 10322 10335 10347 10359 10372 10383 10395 10407 10418 10430
9974 9969 9965 9961 9957 9953 9950 9947 9943 9941 9939 9937 9935 9933 9932 9930 9929 9928 9928 9927 9927 9927 9928 9928 9928 9930 9931 9933 9935 9937 9939 9942 9943 9946 9949 9952 9955 9958 9963 9967 9972 9977 9982 9988 9994 10000 10007 10013 10019 10025 10032 10040 10048 10057 10067 10075 10085 10093 10103 10113 10125 10137 10150 10164 10178 10192 10205 10217 10228 10238 10248 10259 10270 10282 10293 10305 10317 10329 10342 10354 10367 10378 10390 10401 10413 10425
9971 9967 9962 9958 9955 9952 9948 9945 9942 9939 9937 9934 9932 9931 9930 9928 9927 9927 9926 9925 9925 9925 9925 9926 9927 9928 9929 9931 9933 9935 9937 9939 9942 9944 9947 9950 9953 9957 9960 9965 9969 9974 9980 9985 9992 9998 10004 10010 10017 10023 10029 10037 10045 10054 10063 10072 10081 10090 10100 10110 10122 10134 10148 10162 10177 10191 10203 10215 10225 10235 10245 10255 10266 10277 10288 10300 10312 10325 10337 10350 10362 10373 10385 10397 10408 10420
9968 9964 9960 9956 9952 9949 9946 9943 9940 9937 9935 9932 9930 9929 9928 9927 9926 9925 9924 9923 9923 9923 9923 9924 9925 9926 9928 9929 9931 9933 9935 9937 9940 9942 9945 9948 9951 9955 9958 9963 9967 9972 9978 9983 9989 9995 10001 10007 10013 10020 10027 10033 10042 10050 10058 10068 10077 10087 10097 10107 10118 10132 10145 10159 10173 10187 10200 10211 10221 10230 10240 10251 10262 10272 10283 10295 10308 10320 10333 10345 10358 10369 10381 10392 10403 10415
9966 9962 9957 9953 9950 9947 9943 9940 9938 9935 9933 9931 9928 9927 9925 9925 9923 9923 9922 9922 9922 9922 9922 9923 9923 9925 9926 9927 9929 9931 9933 9935 9938 9940 9943 9946 9949 9953 9957 9961 9966 9970 9976 9981 9987 9992 9998 10004 10010 10017 10023 10030 10038 10046 10055 10064 10073 10083 10093 10103 10115 10128 10141 10154 10167 10180 10192 10203 10214 10225 10235 10246 10257 10268 10279 10291 10303 10315 10328 10341 10353 10365 10377 10388 10400 10411
9963 9959 9955 9951 9947 9944 9941 9938 9936 9933 9931 9929 9927 9925 9923 9922 9922 9921 9920 9920 9920 9920 9920 9921 9922 9923 9924 9925 9927 9929 9932 9933 9936 9938 9941 9944 9947 9951 9955 9960 9964 9969 9973 9978 9984 9989 9995 10001 10007 10013 10020 10027 10034 10042 10051 10060 10070 10080 10090 10100 10111 10123 10135 10148 10160 10173 10185 10196 10207 10218 10229 10240 10252 10262 10273 10285 10298 10310 10323 10336 10348 10360 10372 10383 10395 10407
9961 9957 9953 9950 9945 9942 9939 9936 9933 9932 9930 9927 9925 9923 9922 9921 9920 9919 9918 9918 9918 9918 9919 9920 9920 9922 9923 9924 9925 9927 9930 9932 9934 9937 9940 9943 9946 9950 9953 9958 9962 9967 9971 9976 9981 9987 9992 9998 10004 10011 10017 10024 10032 10040 10048 10057 10067 10077 10087 10097 10107 10118 10129 10141 10153 10166 10178 10190 10201 10212 10223 10234 10245 10256 10268 10280 10292 10305 10318 10330 10343 10355 10367 10378 10390 10401
9959 9955 9952 9947 9943 9940 9937 9934 9932 9929 9927 9925 9923 9922 9921 9920 9918 9918 9917 9917 9917 9917 9917 9918 9919 9920 9921 9922 9924 9926 9928 9930 9932 9935 9938 9941 9944 9948 9952 9956 9960 9965 9968 9973 9978 9984 9990 9996 10002 10008 10015 10022 10030 10037 10045 10055 10063 10073 10083 10093 10103 10113 10124 10135 10147 10158 10171 10183 10194 10205 10216 10227 10239 10250 10262 10275 10287 10300 10312 10325 10337 10348 10360 10372 10383 10396
9957 9953 9949 9945 9942 9938 9935 9932 9930 9928 9925 9923 9922 9920 9919 9918 9917 9917 9916 9915 9915 9915 9916 9917 9917 9918 9920 9921 9922 9924 9926 9928 9930 9933 9936 9939 9942 9946 9950 9954 9958 9962 9967 9972 9977 9982 9988 9994 10000 10007 10013 10021 10028 10035 10043 10052 10061 10070 10080 10090 10100 10110 10120 10131 10142 10153 10165 10177 10188 10199 10210 10222 10233 10245 10258 10270 10282 10295 10307 10319 10331 10343 10354 10366 10378 10390
9955 9951 9947 9943 9940 9937 9933 9931 9928 9926 9924 9922 9920 9919 9918 9917 9916 9915 9914 9914 9914 9914 9915 9915 9916 9917 9918 9919 9921 9922 9924 9927 9929 9932 9935 9937 9941 9944 9948 9952 9956 9960 9965 9970 9975 9980 9986 9992 9998 10005 10012 10018 10025 10033 10040 10049 10058 10067 10077 10087 10097 10107 10117 10128 10138 10150 10161 10172 10183 10193 10205 10217 10229 10241 10253 10265 10277 10290 10302 10313 10325 10337 10348 10360 10372 10384
9953 9948 9945 9941 9938 9935 9932 9930 9927 9925 9923 9921 9919 9918 9917 9915 9914 9913 9913 9913 9913 9913 9913 9914 9915 9915 9917 9918 9919 9921 9923 9925 9927 9930 9933 9936 9939 9943 9947 9950 9954 9958 9963 9968 9973 9978 9984 9990 9997 10003 10009 10016 10023 10030 10037 10045 10054 10063 10073 10083 10093 10103 10114 10125 10135 10146 10157 10167 10178 10188 10200 10212 10224 10236 10248 10260 10272 10284 10297 10308 10320 10332 10343 10355 10367 10379
9951 9947 9943 9940 9937 9934 9932 9928 9926 9923 9922 9920 9918 9917 9915 9914 9913 9912 9912 9912 9912 9912 9912 9913 9913 9914 9915 9917 9918 9919 9922 9923 9926 9928 9932 9934 9938 9941 9945 9948 9953 9957 9962 9967 9972 9977 9983 9988 9994 10000 10007 10013 10020 10027 10034 10042 10051 10060 10070 10080 10090 10100 10110 10120 10131 10142 10152 10162 10173 10183 10195 10207 10218 10230 10242 10255 10267 10279 10291 10303 10315 10327 10339 10351 10363 10374
9950 9947 9943 9940 9937 9933 9930 9928 9925 9922 9920 9918 9917 9915 9914 9913 9912 9912 9911 9911 9911 9911 9912 9912 9912 9913 9914 9915 9917 9918 9920 9922 9925 9927 9930 9933 9937 9940 9943 9947 9952 9956 9960 9965 9970 9976 9982 9987 9992 9998 10004 10010 10017 10025 10032 10040 10048 10057 10066 10076 10086 10096 10106 10116 10127 10137 10147 10158 10168 10178 10190 10201 10213 10225 10237 10249 10261 10273 10285 10298 10310 10322 10335 10347 10358 10370
9950 9946 9942 9939 9935 9932 9929 9927 9924 9922 9919 9917 9915 9914 9913 9912 9911 9910 9910 9910 9910 9910 9910 9911 9912 9912 9913 9914 9916 9917 9919 9922 9924 9927 9930 9933 9936 9939 9943 9946 9950 9955 9959 9964 9969 9974 9980 9985 9991 9997 10002 10008 10015 10022 10030 10037 10045 10054 10063 10072 10082 10092 10102 10112 10122 10133 10143 10153 10163 10174 10185 10197 10208 10220 10231 10243 10255 10268 10280 10293 10306 10318 10331 10343 10354 10365
9949 9945 9941 9938 9934 9931 9928 9925 9922 9920 9918 9916 9914 9913 9912 9911 9910 9909 9908 9908 9908 9909 9909 9910 9910 9911 9912 9913 9915 9917 9918 9921 9923 9926 9929 9932 9935 9938 9942 9945 9949 9953 9958 9963 9968 9973 9978 9983 9988 9994 10000 10007 10013 10020 10028 10035 10043 10051 10060 10069 10078 10088 10098 10108 10118 10128 10138 10149 10160 10170 10181 10192 10203 10215 10226 10238 10250 10262 10275 10288 10302 10315 10327 10339 10350 10361
9948 9943 9940 9936 9933 9929 9927 9923 9921 9919 9917 9915 9913 9912 9911 9910 9909 9908 9908 9908 9908 9908 9908 9909 9910 9910 9912 9913 9915 9916 9918 9920 9923 9925 9928 9931 9934 9937 9941 9944 9948 9953 9957 9962 9967 9971 9976 9981 9987 9992 9998 10005 10012 10018 10025 10033 10041 10049 10058 10067 10075 10085 10094 10104 10113 10123 10134 10145 10155 10166 10177 10188 10199 10210 10222 10233 10245 10257 10270 10283 10297 10310 10323 10334 10345 10357
9947 9942 9938 9935 9931 9928 9925 9922 9920 9918 9915 9914 9912 9911 9910 9909 9908 9908 9907 9907 9907 9907 9908 9908 9909 9910 9911 9912 9914 9915 9917 9920 9922 9925 9927 9930 9933 9937 9940 9943 9947 9952 9956 9960 9965 9969 9975 9980 9985 9991 9997 10003 10009 10016 10023 10031 10039 10047 10055 10064 10073 10082 10092 10100 10110 10120 10130 10140 10151 10162 10172 10183 10195 10207 10218 10229 10241 10253 10266 10278 10292 10305 10317 10328 10340 10351
9945 9941 9937 9933 9930 9927 9924 9922 9919 9917 9915 9913 9911 9910 9909 9908 9907 9907 9907 9906 9906 9907 9907 9907 9908 9909 9910 9912 9913 9915 9917 9919 9921 9923 9927 9929 9932 9935 9938 9942 9946 9950 9955 9959 9963 9968 9973 9978 9983 9989 9995 10000 10007 10013 10021 10028 10036 10044 10052 10061 10070 10079 10088 10097 10107 10117 10126 10136 10146 10157 10168 10179 10190 10202 10213 10225 10237 10250 10262 10275 10288 10300 10312 10323 10334 10345
9943 9940 9936 9932 9929 9926 9923 9920 9918 9916 9913 9912 9910 9909 9908 9907 9907 9906 9905 9905 9905 9906 9906 9907 9908 9908 9910 9911 9912 9914 9916 9918 9920 9923 9925 9928 9931 9934 9937 9941 9945 9949 9953 9957 9962 9967 9971 9976 9982 9987 9993 9999 10005 10012 10019 10026 10033 10040 10048 10058 10067 10076 10085 10094 10103 10113 10123 10132 10142 10152 10163 10175 10186 10197 10209 10221 10233 10247 10260 10272 10284 10296 10307 10318 10328 10338
9942 9938 9935 9932 9928 9925 9922 9919 9917 9915 9913 9911 9910 9908 9907 9907 9906 9905 9905 9905 9905 9905 9906 9907 9907 9908 9909 9910 9912 9913 9915 9917 9919 9922 9924 9927 9930 9933 9936 9940 9943 9947 9952 9956 9960 9965 9970 9975 9980 9986 9992 9997 10003 10010 10017 10023 10030 10038 10046 10055 10064 10073 10082 10091 10100 10109 10118 10128 10138 10148 10159 10170 10182 10193 10205 10217 10230 10243 10255 10268 10280 10292 10303 10313 10323 10334
9942 9937 9934 9930 9927 9924 9921 9918 9916 9913 9912 9910 9908 9907 9907 9906 9905 9905 9905 9904 9904 9905 9905 9906 9907 9907 9908 9909 9910 9912 9914 9916 9918 9920 9923 9925 9928 9932 9935 9938 9942 9946 9950 9954 9959 9963 9968 9973 9979 9984 9990 9996 10002 10008 10014 10021 10028 10037 10045 10053 10062 10070 10078 10087 10097 10105 10115 10125 10135 10145 10155 10166 10177 10188 10200 10212 10224 10237 10249 10261 10273 10285 10297 10308 10318 10329
9940 9937 9933 9929 9926 9923 9920 9918 9915 9913 9911 9909 9908 9907 9906 9905 9905 9904 9904 9903 9903 9904 9905 9905 9906 9907 9907 9908 9910 9912 9913 9915 9918 9920 9922 9925 9928 9930 9933 9937 9941 9945 9948 9953 9958 9962 9967 9972 9977 9983 9988 9994 10000 10006 10013 10019 10027 10034 10042 10050 10057 10065 10075 10084 10093 10102 10111 10121 10131 10141 10151 10162 10173 10184 10196 10208 10219 10231 10243 10255 10268 10280 10292 10302 10313 10323
9939 9935 9932 9928 9925 9922 9920 9917 9915 9912 9910 9908 9907 9906 9905 9904 9904 9903 9903 9903 9903 9903 9904 9905 9905 9906 9907 9908 9909 9911 9913 9915 9917 9920 9922 9924 9927 9930 9933 9936 9940 9943 9947 9952 9956 9961 9966 9971 9976 9982 9987 9992 9998 10004 10011 10018 10025 10032 10039 10046 10054 10063 10072 10081 10090 10099 10108 10118 10127 10137 10147 10157 10168 10179 10191 10203 10215 10228 10240 10253 10265 10277 10288 10299 10310 10320
9938 9934 9930 9927 9924 9922 9919 9917 9914 9912 9910 9908 9907 9905 9905 9903 9903 9903 9903 9903 9903 9903 9903 9904 9905 9905 9906 9907 9908 9910 9912 9915 9917 9920 9922 9924 9927 9929 9932 9935 9938 9942 9946 9950 9955 9960 9965 9970 9975 9980 9985 9991 9997 10002 10009 10015 10023 10030 10037 10045 10053 10062 10070 10078 10086 10095 10105 10114 10123 10133 10143 10153 10164 10175 10187 10198 10212 10224 10238 10251 10263 10274 10284 10295 10306 10317
9937 9933 9930 9927 9923 9921 9918 9916 9913 9912 9910 9908 9907 9905 9904 9903 9903 9902 9902 9902 9902 9902 9903 9903 9904 9905 9905 9906 9907 9909 9912 9914 9917 9919 9922 9924 9927 9929 9932 9935 9938 9942 9945 9949 9953 9958 9963 9968 9973 9978 9983 9989 9995 10001 10007 10013 10020 10027 10035 10042 10051 10058 10065 10073 10082 10092 10101 10110 10120 10130 10140 10150 10161 10172 10184 10197 10209 10222 10234 10246 10257 10268 10279 10290 10301 10312
9935 9932 9928 9926 9923 9920 9918 9915 9913 9911 9909 9908 9906 9905 9903 9903 9902 9902 9902 9902 9902 9902 9902 9903 9903 9904 9905 9905 9907 9908 9910 9912 9915 9918 9920 9923 9926 9929 9932 9935 9938 9942 9945 9948 9953 9957 9962 9967 9971 9977 9982 9987 9993 9999 10005 10012 10018 10025 10032 10040 10047 10054 10061 10070 10078 10088 10097 10106 10116 10126 10136 10147 10158 10170 10183 10195 10207 10218 10230 10240 10252 10263 10274 10286 10297 10308
9935 9931 9928 9925 9922 9920 9917 9915 9913 9911 9909 9907 9906 9905 9903 9902 9902 9902 9902 9902 9902 9902 9902 9903 9903 9904 9905 9906 9907 9907 9908 9910 9913 9916 9918 9922 9925 9928 9931 9935 9938 9942 9945 9948 9952 9957 9960 9965 9970 9975 9980 9985 9991 9997 10003 10010 10017 10023 10030 10037 10044 10052 10060 10069 10078 10086 10093 10102 10112 10122 10132 10143 10155 10167 10179 10190 10202 10213 10225 10236 10247 10258 10270 10282 10294 10305
9934 9930 9927 9924 9922 9919 9917 9915 9912 9910 9908 9907 9906 9904 9903 9902 9902 9901 9901 9901 9902 9902 9902 9902 9903 9904 9905 9906 9907 9908 9908 9910 9912 9913 9917 9919 9922 9926 9930 9933 9937 9940 9944 9948 9952 9956 9960 9964 9968 9973 9978 9983 9988 9995 10001 10007 10014 10021 10028 10035 10042 10050 10058 10067 10075 10082 10090 10099 10108 10118 10129 10140 10152 10163 10173 10185 10196 10208 10220 10233 10245 10257 10267 10278 10289 10300
9933 9930 9927 9924 9922 9918 9917 9914 9912 9910 9908 9907 9905 9904 9903 9902 9902 9901 9900 9901 9901 9902 9902 9902 9902 9903 9904 9906 9907 9908 9910 9910 9912 9913 9915 9918 9920 9923 9927 9931 9935 9939 9943 9947 9951 9955 9959 9963 9967 9972 9976 9982 9987 9993 9998 10005 10012 10018 10025 10033 10040 10047 10055 10062 10070 10078 10087 10097 10106 10116 10126 10137 10147 10158 10169 10181 10193 10206 10218 10230 10242 10254 10265 10275 10286 10297
9933 9930 9927 9923 9921 9918 9916 9914 9912 9910 9908 9907 9905 9904 9903 9902 9902 9901 9900 9900 9901 9901 9902 9902 9902 9903 9903 9905 9907 9908 9910 9912 9913 9914 9916 9918 9920 9923 9926 9929 9933 9937 9941 9945 9950 9954 9958 9962 9967 9971 9975 9980 9985 9991 9997 10003 10010 10016 10023 10030 10037 10045 10052 10059 10067 10076 10085 10094 10103 10113 10123 10133 10143 10153 10165 10178 10192 10203 10215 10227 10238 10250 10262 10273 10283 10294
9932 9929 9927 9923 9921 9918 9916 9913 9912 9910 9908 9907 9905 9904 9903 9902 9902 9901 9900 9900 9900 9901 9902 9902 9902 9903 9903 9905 9906 9907 9909 9911 9913 9915 9917 9918 9920 9923 9926 9928 9932 9935 9938 9943 9947 9952 9957 9961 9965 9970 9975 9979 9985 9990 9995 10002 10008 10015 10021 10028 10035 10042 10050 10058 10066 10075 10083 10092 10101 10111 10121 10130 10141 10152 10164 10177 10188 10200 10212 10223 10235 10246 10258 10269 10280 10291